Regional Weather Roundup
Issued by NWS

Home | Current Version | Previous Version | Graphics & Text | Print | Product List | Glossary Off
Versions: 1 2 3 4 5 6 7 8 9 10 11 12 13 14 15 16 17 18 19 20 21 22 23 24 25 26 27 28 29 30 31 32 33 34 35 36 37 38 39 40 41 42 43 44 45 46 47 48 49 50

000
ASUS43 KTOP 012208
RWRKS

WEATHER ROUNDUP FOR KANSAS
NATIONAL WEATHER SERVICE GOODLAND KS
500 PM CDT TUE SEP 01 2015

NOTE:  "FAIR" INDICATES FEW OR NO CLOUDS BELOW 12,000 FEET WITH NO
SIGNIFICANT WEATHER AND/OR OBSTRUCTIONS TO VISIBILITY.

KSZ001>006-013>018-027>032-041>047-012300-
NORTHWEST KANSAS

CITY           SKY/WX    TMP DP  RH WIND       PRES   REMARKS
GOODLAND       SUNNY     92  46  20 S5        29.96F
HAYS           MOSUNNY   99  57  25 S21G28    29.88F HX  97
HILL CITY      PTSUNNY   96  57  27 S5        29.87F HX  95
RUSSELL        MOSUNNY   98  59  27 S23G29    29.87F HX  98
$$

KSZ061>065-074>080-084>089-012300-
SOUTHWEST KANSAS

CITY           SKY/WX    TMP DP  RH WIND       PRES   REMARKS
DODGE CITY     SUNNY     95  53  24 SW20G31   29.93F
ELKHART          N/A     91  60  35 S13         N/A
GARDEN CITY    SUNNY     95  55  26 S17G29    29.93F
GREAT BEND     SUNNY     99  57  25 S22       29.88F HX  97
LIBERAL        SUNNY     93  55  27 S17G26    29.96S
PRATT          SUNNY     95  54  24 MISG      29.93F
$$

KSZ066>073-081>083-090>101-012300-
SOUTHEAST KANSAS

CITY           SKY/WX    TMP DP  RH WIND       PRES   REMARKS
CHANUTE        SUNNY     87  67  51 S17       29.99F
COFFEYVILLE    MOSUNNY   87  71  58 S9        29.99F
HUTCHINSON     SUNNY     95  60  31 S20       29.92F HX  95
MEDICINE LODGE   N/A     96  61  31 S16G25    29.90F HX  96
NEWTON         SUNNY     91  61  35 S16G24    29.97F
PARSONS        SUNNY     87  69  54 S8G17     30.00F
WICHITA INTL   MOSUNNY   92  64  39 SE20G25   29.93F
WICHITA JABRA  SUNNY     90  64  42 SE17      29.95F
WICHITA MCCONL SUNNY     91  63  39 SE16      29.95F
WINFIELD       SUNNY     91  66  43 SE16      29.97F
$$

KSZ007>012-019>026-033>040-048>060-102>105-012300-
NORTHEAST KANSAS

CITY           SKY/WX    TMP DP  RH WIND       PRES   REMARKS
CONCORDIA      MOSUNNY   92  63  38 S21G29    29.89F
EMPORIA        MOSUNNY   88  64  44 S16G24    29.97F
LAWRENCE       SUNNY     89  67  47 S14       29.97F
MANHATTAN      MOSUNNY   93  62  35 S15G23    29.91F
MARYSVILLE     PTSUNNY  N/A N/A N/A S14G24    29.92F
OLATHE IND     SUNNY     86  68  54 S16       30.01S
OLATHE EXE     SUNNY     85  69  58 S9        29.99F
SALINA         SUNNY     95  62  33 S21G29    29.89F HX  96
TOPEKA BILLARD SUNNY     90  66  45 S10       29.96F
TOPEKA FORBES  SUNNY     91  67  44 S16G22    29.97S
$$



USA.gov is the U.S. government's official web portal to all federal, state and local government web resources and services.